Nashua, NH

12:08 PM EDT on October 17, 2019 (GMT -0400)
Boire

Weather History for KASH - August, 2019

Change the Weather History Date:

Friday, August 16, 2019

  Actual Average Record
Temperature  
Mean Temperature 73 °F -  
Max Temperature 84 °F 80 °F 96 °F (2002)
Min Temperature 64 °F 56 °F 41 °F (1972)
Cooling Degree Days 8    
Growing Degree Days 23 (Base 50)    
Moisture  
Dew Point 65 °F    
Average Humidity 84    
Maximum Humidity 100    
Minimum Humidity 46    
Precipitation  
Precipitation 0.00 in - - ()
Sea Level Pressure  
Sea Level Pressure 30.07 in    
Wind  
Wind Speed 4 mph (SE)    
Max Wind Speed 10 mph    
Max Gust Speed 17 mph    
Visibility 10 miles    
Events      
Averages and records for this station are not official NWS values.
T = Trace of Precipitation, MM = Missing Value Source: NWS Daily Summary

Daily Weather History Graph

Daily Weather History Graph

Search for Another Location

Airport or City:

Astronomy

Aug. 16, 2019 Rise Set
Actual Time 5:53 AM EDT 7:46 PM EDT
Civil Twilight 5:22 AM EDT 8:17 PM EDT
Nautical Twilight 4:45 AM EDT 8:54 PM EDT
Astronomical Twilight 4:05 AM EDT 9:34 PM EDT
Moon 8:43 PM EDT (8/16) 6:41 AM EDT (8/16)
Length of Visible Light 14h 54m
Length of Day
13h 53m
Full, 99% of the Moon is Illuminated
Aug 16
Full
Aug 23
Last Quarter
Aug 30
New
Sep 5
First Quarter
Sep 14
Full

Hourly Weather History & Observations

Time (EDT) Temp. Heat Index Dew Point Humidity Pressure Visibility Wind Dir Wind Speed Gust Speed Precip Events Conditions
12:56 AM 66.0 °F - 64.9 °F 96% 30.09 in 10.0 mi SE 4.6 mph - N/A   Overcast
1:56 AM 66.0 °F - 66.0 °F 100% 30.08 in 10.0 mi SE 3.5 mph - N/A   Overcast
2:56 AM 66.0 °F - 66.0 °F 100% 30.07 in 10.0 mi Calm Calm - N/A   Overcast
3:56 AM 66.0 °F - 66.0 °F 100% 30.04 in 10.0 mi ESE 4.6 mph - N/A   Scattered Clouds
4:05 AM 64.4 °F - 64.4 °F 100% 30.04 in 10.0 mi SSE 3.5 mph - N/A   Mostly Cloudy
4:16 AM 64.4 °F - 64.4 °F 100% 30.05 in 10.0 mi Calm Calm - N/A   Mostly Cloudy
4:56 AM 64.9 °F - 64.9 °F 100% 30.06 in 10.0 mi SE 4.6 mph - N/A   Overcast
5:56 AM 64.9 °F - 64.9 °F 100% 30.07 in 9.0 mi Calm Calm - N/A   Overcast
6:56 AM 64.9 °F - 64.9 °F 100% 30.08 in 3.0 mi Calm Calm - N/A   Overcast
7:56 AM 66.9 °F - 66.0 °F 97% 30.10 in 9.0 mi ESE 4.6 mph - N/A   Overcast
8:27 AM 66.2 °F - 66.2 °F 100% 30.09 in 10.0 mi Calm Calm - N/A   Overcast
8:56 AM 66.9 °F - 66.0 °F 97% 30.11 in 10.0 mi ESE 3.5 mph - N/A   Overcast
9:46 AM 69.8 °F - 66.2 °F 88% 30.08 in 10.0 mi ESE 5.8 mph - N/A   Mostly Cloudy
9:53 AM 71.6 °F - 66.2 °F 83% 30.08 in 10.0 mi ESE 9.2 mph - N/A   Scattered Clouds
9:56 AM 71.1 °F - 66.0 °F 84% 30.09 in 10.0 mi ESE 6.9 mph - N/A   Scattered Clouds
10:56 AM 75.0 °F - 64.0 °F 69% 30.10 in 10.0 mi SSE 5.8 mph - N/A   Partly Cloudy
11:56 AM 78.1 °F - 62.1 °F 58% 30.09 in 10.0 mi South 3.5 mph - N/A   Scattered Clouds
12:56 PM 79.0 °F - 62.1 °F 56% 30.07 in 10.0 mi Variable 5.8 mph - N/A   Scattered Clouds
1:56 PM 82.0 °F 83.0 °F 62.1 °F 51% 30.07 in 10.0 mi Variable 3.5 mph - N/A   Scattered Clouds
2:56 PM 82.9 °F 83.2 °F 60.1 °F 46% 30.06 in 10.0 mi South 6.9 mph 13.8 mph N/A   Mostly Cloudy
3:56 PM 82.0 °F 82.4 °F 60.1 °F 47% 30.06 in 10.0 mi SE 10.4 mph 16.1 mph N/A   Mostly Cloudy
4:56 PM 82.0 °F 82.7 °F 61.0 °F 49% 30.04 in 10.0 mi SE 9.2 mph 16.1 mph N/A   Mostly Cloudy
5:56 PM 80.1 °F 82.1 °F 66.0 °F 62% 30.04 in 10.0 mi SSE 10.4 mph 17.3 mph N/A   Mostly Cloudy
6:56 PM 75.9 °F - 66.9 °F 74% 30.05 in 10.0 mi SE 6.9 mph - N/A   Mostly Cloudy
7:56 PM 73.0 °F - 66.0 °F 79% 30.05 in 10.0 mi ESE 9.2 mph - N/A   Mostly Cloudy
8:56 PM 70.0 °F - 66.0 °F 87% 30.07 in 10.0 mi Variable 6.9 mph - N/A   Scattered Clouds
9:11 PM 69.8 °F - 66.2 °F 88% 30.07 in 10.0 mi ESE 6.9 mph - N/A   Mostly Cloudy
9:46 PM 69.8 °F - 66.2 °F 88% 30.07 in 10.0 mi East 4.6 mph - N/A   Partly Cloudy
9:56 PM 69.1 °F - 66.0 °F 90% 30.09 in 10.0 mi ESE 6.9 mph - N/A   Partly Cloudy
10:40 PM 68.0 °F - 66.2 °F 94% 30.08 in 10.0 mi East 3.5 mph - N/A   Mostly Cloudy
10:48 PM 68.0 °F - 66.2 °F 94% 30.08 in 10.0 mi Calm Calm - N/A   Scattered Clouds
10:56 PM 68.0 °F - 66.0 °F 93% 30.10 in 10.0 mi Calm Calm - N/A   Partly Cloudy
11:52 PM 66.2 °F - 66.2 °F 100% 30.08 in 10.0 mi SSE 3.5 mph - N/A   Mostly Cloudy
11:56 PM 66.9 °F - 66.9 °F 100% 30.09 in 10.0 mi SE 3.5 mph - N/A   Mostly Cloudy